TimeCST,TemperatureF,Dew PointF,Humidity,Sea Level PressureIn,VisibilityMPH,Wind Direction,Wind SpeedMPH,Gust SpeedMPH,PrecipitationIn,Events,Conditions,WindDirDegrees,DateUTC
12:16 AM,30.2,26.6,86,30.35,10.0,Calm,Calm,-,N/A,,Clear,0,2011-12-25 06:16:00
12:35 AM,30.2,26.6,86,30.34,10.0,SW,3.5,-,N/A,,Clear,220,2011-12-25 06:35:00
12:55 AM,30.2,26.6,86,30.35,10.0,SW,5.8,-,N/A,,Clear,220,2011-12-25 06:55:00
1:15 AM,28.4,26.6,93,30.34,10.0,SW,5.8,-,N/A,,Clear,220,2011-12-25 07:15:00
1:35 AM,30.2,26.6,86,30.34,10.0,SW,5.8,-,N/A,,Clear,230,2011-12-25 07:35:00
1:55 AM,30.2,26.6,86,30.34,10.0,SW,5.8,-,N/A,,Clear,230,2011-12-25 07:55:00
2:15 AM,26.6,23.0,86,30.34,10.0,SW,5.8,-,N/A,,Clear,220,2011-12-25 08:15:00
2:35 AM,30.2,26.6,86,30.34,10.0,SW,4.6,-,N/A,,Clear,230,2011-12-25 08:35:00
2:55 AM,30.2,26.6,86,30.34,10.0,WSW,4.6,-,N/A,,Clear,240,2011-12-25 08:55:00
3:16 AM,28.4,24.8,86,30.33,10.0,WSW,4.6,-,N/A,,Clear,240,2011-12-25 09:16:00
3:35 AM,28.4,24.8,86,30.33,10.0,West,3.5,-,N/A,,Clear,260,2011-12-25 09:35:00
4:15 AM,26.6,24.8,93,30.32,10.0,SW,4.6,-,N/A,,Clear,230,2011-12-25 10:15:00
4:35 AM,26.6,21.2,80,30.31,10.0,SW,3.5,-,N/A,,Clear,220,2011-12-25 10:35:00
4:55 AM,26.6,23.0,86,30.29,10.0,SW,5.8,-,N/A,,Clear,230,2011-12-25 10:55:00
5:15 AM,28.4,26.6,93,30.30,10.0,WSW,4.6,-,N/A,,Clear,240,2011-12-25 11:15:00
5:35 AM,30.2,24.8,80,30.30,10.0,SW,5.8,-,N/A,,Clear,230,2011-12-25 11:35:00
5:55 AM,30.2,26.6,86,30.30,10.0,WSW,4.6,-,N/A,,Clear,250,2011-12-25 11:55:00
6:15 AM,28.4,24.8,86,30.30,10.0,SW,4.6,-,N/A,,Clear,230,2011-12-25 12:15:00
6:35 AM,28.4,24.8,86,30.30,10.0,SW,4.6,-,N/A,,Clear,230,2011-12-25 12:35:00
6:55 AM,28.4,24.8,86,30.30,10.0,SW,5.8,-,N/A,,Clear,220,2011-12-25 12:55:00
7:15 AM,28.4,24.8,86,30.31,10.0,SW,4.6,-,N/A,,Clear,230,2011-12-25 13:15:00
7:35 AM,28.4,24.8,86,30.31,10.0,SW,5.8,-,N/A,,Clear,230,2011-12-25 13:35:00
7:55 AM,33.8,24.8,70,30.32,10.0,WSW,5.8,-,N/A,,Clear,250,2011-12-25 13:55:00
8:15 AM,33.8,26.6,75,30.31,10.0,SW,6.9,-,N/A,,Clear,230,2011-12-25 14:15:00
8:35 AM,35.6,28.4,75,30.32,10.0,SW,6.9,-,N/A,,Clear,230,2011-12-25 14:35:00
9:35 AM,42.8,30.2,61,30.33,10.0,West,6.9,-,N/A,,Clear,260,2011-12-25 15:35:00
9:55 AM,42.8,28.4,57,30.33,10.0,West,8.1,-,N/A,,Clear,260,2011-12-25 15:55:00
10:15 AM,44.6,30.2,57,30.33,10.0,WSW,10.4,-,N/A,,Clear,240,2011-12-25 16:15:00
10:35 AM,46.4,30.2,53,30.33,10.0,WSW,8.1,-,N/A,,Clear,250,2011-12-25 16:35:00
10:55 AM,48.2,30.2,50,30.32,10.0,SW,11.5,-,N/A,,Clear,230,2011-12-25 16:55:00
11:15 AM,48.2,30.2,50,30.30,10.0,WSW,8.1,-,N/A,,Clear,250,2011-12-25 17:15:00
11:35 AM,50.0,30.2,47,30.29,10.0,WSW,9.2,-,N/A,,Clear,240,2011-12-25 17:35:00
11:55 AM,51.8,33.8,50,30.28,10.0,WSW,12.7,-,N/A,,Clear,240,2011-12-25 17:55:00
12:15 PM,51.8,30.2,44,30.27,10.0,West,10.4,-,N/A,,Clear,270,2011-12-25 18:15:00
12:55 PM,53.6,30.2,41,30.27,10.0,West,8.1,-,N/A,,Clear,270,2011-12-25 18:55:00
1:15 PM,51.8,28.4,41,30.28,10.0,WNW,6.9,20.7,N/A,,Clear,300,2011-12-25 19:15:00
1:55 PM,53.6,28.4,38,30.29,10.0,WNW,8.1,-,N/A,,Clear,300,2011-12-25 19:55:00
2:35 PM,53.6,28.4,38,30.28,10.0,West,10.4,17.3,N/A,,Clear,270,2011-12-25 20:35:00
2:55 PM,53.6,26.6,35,30.29,10.0,WNW,6.9,-,N/A,,Clear,300,2011-12-25 20:55:00
3:35 PM,51.8,26.6,38,30.31,10.0,NNW,9.2,16.1,N/A,,Clear,330,2011-12-25 21:35:00
3:55 PM,-9999,-9999,N/A,30.32,10.0,WNW,5.8,-,N/A,,Clear,300,2011-12-25 21:55:00
4:15 PM,-9999,-9999,N/A,30.32,10.0,NW,3.5,-,N/A,,Clear,310,2011-12-25 22:15:00
4:36 PM,-9999,-9999,N/A,30.33,10.0,NW,3.5,-,N/A,,Clear,310,2011-12-25 22:36:00
4:55 PM,46.4,26.6,46,30.34,10.0,Calm,Calm,-,N/A,,Clear,0,2011-12-25 22:55:00
5:15 PM,42.8,28.4,57,30.34,10.0,Calm,Calm,-,N/A,,Clear,0,2011-12-25 23:15:00
5:35 PM,-9999,-9999,N/A,30.35,10.0,Calm,Calm,-,N/A,,Clear,0,2011-12-25 23:35:00
5:55 PM,35.6,28.4,75,30.36,10.0,Calm,Calm,-,N/A,,Clear,0,2011-12-25 23:55:00
6:35 PM,35.6,26.6,70,30.36,10.0,Calm,Calm,-,N/A,,Clear,0,2011-12-26 00:35:00
6:55 PM,30.2,26.6,86,30.37,10.0,Calm,Calm,-,N/A,,Clear,0,2011-12-26 00:55:00
7:15 PM,30.2,24.8,80,30.37,10.0,Calm,Calm,-,N/A,,Clear,0,2011-12-26 01:15:00
7:55 PM,37.4,26.6,65,30.38,10.0,Calm,Calm,-,N/A,,Clear,0,2011-12-26 01:55:00
8:15 PM,39.2,26.6,61,30.38,10.0,Calm,Calm,-,N/A,,Clear,0,2011-12-26 02:15:00
8:55 PM,39.2,26.6,61,30.38,10.0,NNW,3.5,-,N/A,,Clear,340,2011-12-26 02:55:00
9:15 PM,39.2,26.6,61,30.39,10.0,North,4.6,-,N/A,,Clear,360,2011-12-26 03:15:00
9:35 PM,37.4,26.6,65,30.39,10.0,North,4.6,-,N/A,,Clear,10,2011-12-26 03:35:00
9:55 PM,39.2,26.6,61,30.39,10.0,North,4.6,-,N/A,,Clear,10,2011-12-26 03:55:00
10:15 PM,37.4,26.6,65,30.39,10.0,NNE,3.5,-,N/A,,Clear,20,2011-12-26 04:15:00
10:35 PM,32.0,24.8,75,30.39,10.0,Calm,Calm,-,N/A,,Clear,0,2011-12-26 04:35:00
11:15 PM,28.4,24.8,86,30.39,10.0,Calm,Calm,-,N/A,,Clear,0,2011-12-26 05:15:00
11:35 PM,30.2,24.8,80,30.39,10.0,Calm,Calm,-,N/A,,Clear,0,2011-12-26 05:35:00
11:55 PM,26.6,23.0,86,30.38,10.0,Calm,Calm,-,N/A,,Clear,0,2011-12-26 05:55:00